Granada, Spain

7:35 PM CEST on July 29, 2016 (GMT +0200)
Granada

Weather History for LEGR - April, 2013

Change the Weather History Date:

Saturday, April 6, 2013

  Actual Average Record
Temperature  
Mean Temperature 48 °F -  
Max Temperature 57 °F 70 °F 84 °F (1999)
Min Temperature 39 °F 44 °F 33 °F (2003)
Degree Days  
Heating Degree Days 17    
Moisture  
Dew Point 38 °F    
Average Humidity 65    
Maximum Humidity 93    
Minimum Humidity 39    
Precipitation  
Precipitation 0.00 in - - ()
Sea Level Pressure  
Sea Level Pressure 30.07 in    
Wind  
Wind Speed 6 mph ()    
Max Wind Speed 13 mph    
Max Gust Speed 20 mph    
Visibility 7.2 miles    
Events      
Averages and records for this station are not official NWS values.
T = Trace of Precipitation, MM = Missing Value Source: Averaged Metar Reports

Daily Weather History Graph

Daily Weather History Graph

Search for Another Location

Airport or City:

Trip Planner

Search our weather history database for the weather conditions in past years. The results will help you decide how hot, cold, wet, or windy it might be!

Date:

Astronomy

Apr. 06, 2013 Rise Set
Actual Time 7:53 AM CEST 8:42 PM CEST
Civil Twilight 7:27 AM CEST 9:08 PM CEST
Nautical Twilight 6:55 AM CEST 9:39 PM CEST
Astronomical Twilight 6:23 AM CEST 10:12 PM CEST
Moon 5:23 AM CEST (4/6) 5:00 PM CEST (4/6)
Length of Visible Light 13h 41m
Length of Day
12h 48m
Waning Crescent, 17% of the Moon is Illuminated
Apr 6
Waning Crescent
Apr 10
New
Apr 18
First Quarter
Apr 25
Full
May 2
Last Quarter

Hourly Weather History & Observations

Time (CEST) Temp. Windchill Dew Point Humidity Pressure Visibility Wind Dir Wind Speed Gust Speed Precip Events Conditions
6:00 AM 42.8 °F 39.3 °F 39.2 °F 87% 29.98 in 6.2 mi WSW 5.8 mph - N/A   Scattered Clouds
6:30 AM 42.8 °F 38.6 °F 39.2 °F 87% 30.01 in 6.2 mi WSW 6.9 mph - N/A   Scattered Clouds
7:00 AM 41.0 °F 37.1 °F 39.2 °F 93% 30.01 in 6.2 mi West 5.8 mph - N/A   Scattered Clouds
7:30 AM 41.0 °F 36.4 °F 39.2 °F 93% 30.01 in 6.2 mi West 6.9 mph - N/A   Partly Cloudy
8:00 AM 39 °F - 35 °F 82% 30.09 in 19 mi West 6.9 mph - -   Partly Cloudy
8:00 AM 39.2 °F 35.0 °F 37.4 °F 93% 30.04 in 6.2 mi West 5.8 mph - N/A   Scattered Clouds
9:00 AM 42.8 °F - 41.0 °F 93% 30.06 in 6.2 mi Calm Calm - N/A   Scattered Clouds
9:30 AM 44.6 °F 43.1 °F 39.2 °F 81% 30.06 in 6.2 mi West 3.5 mph - N/A   Scattered Clouds
10:00 AM 46.4 °F 42.9 °F 41.0 °F 81% 30.06 in 6.2 mi West 6.9 mph - N/A   Partly Cloudy
10:30 AM 46.4 °F 42.4 °F 41.0 °F 81% 30.06 in 6.2 mi West 8.1 mph - N/A   Partly Cloudy
11:00 AM 48.2 °F - 39.2 °F 71% 30.06 in 6.2 mi West 6.9 mph - N/A   Partly Cloudy
11:30 AM 51.8 °F - 39.2 °F 62% 30.09 in 6.2 mi Calm Calm - N/A   Partly Cloudy
12:00 PM 51.8 °F - 39.2 °F 62% 30.09 in 6.2 mi Variable 3.5 mph - N/A   Scattered Clouds
12:30 PM 51.8 °F - 39.2 °F 62% 30.09 in 6.2 mi Variable 3.5 mph - N/A   Scattered Clouds
1:00 PM 51.8 °F - 41.0 °F 67% 30.09 in 6.2 mi Variable 4.6 mph - N/A   Scattered Clouds
1:30 PM 53.6 °F - 39.2 °F 58% 30.09 in 6.2 mi WSW 6.9 mph - N/A   Scattered Clouds
2:00 PM 55 °F - 37 °F 39% 30.07 in 19 mi West 5.8 mph - -   Partly Cloudy
2:00 PM 53.6 °F - 41.0 °F 62% 30.06 in 6.2 mi WNW 6.9 mph 18.4 mph N/A   Scattered Clouds
2:30 PM 55.4 °F - 32.0 °F 41% 30.06 in 6.2 mi NW 5.8 mph - N/A   Scattered Clouds
3:00 PM 55.4 °F - 32.0 °F 41% 30.06 in 6.2 mi NNW 5.8 mph - N/A   Scattered Clouds
3:30 PM 55.4 °F - 37.4 °F 51% 30.06 in 6.2 mi NNW 8.1 mph 19.6 mph N/A   Scattered Clouds
4:00 PM 57.2 °F - 37.4 °F 48% 30.06 in 6.2 mi NNW 11.5 mph - N/A   Scattered Clouds
4:30 PM 57.2 °F - 37.4 °F 48% 30.06 in 6.2 mi NNW 6.9 mph - N/A   Scattered Clouds
5:00 PM 53.6 °F - 37.4 °F 54% 30.06 in 6.2 mi NNW 11.5 mph - N/A   Scattered Clouds
5:30 PM 55.4 °F - 39.2 °F 54% 30.06 in 6.2 mi West 12.7 mph - N/A   Scattered Clouds
6:00 PM 55.4 °F - 35.6 °F 47% 30.06 in 6.2 mi NW 12.7 mph - N/A   Scattered Clouds
6:30 PM 53.6 °F - 33.8 °F 47% 30.06 in 6.2 mi NNW 10.4 mph - N/A   Partly Cloudy
7:00 PM 55.4 °F - 35.6 °F 47% 30.06 in 6.2 mi NNW 9.2 mph - N/A   Partly Cloudy
7:30 PM 53.6 °F - 35.6 °F 51% 30.06 in 6.2 mi NNW 10.4 mph - N/A   Partly Cloudy
8:00 PM 52 °F - 35 °F 40% 30.09 in 19 mi NW 10.4 mph - -   Scattered Clouds
8:00 PM 51.8 °F - 37.4 °F 58% 30.06 in 6.2 mi NW 10.4 mph - N/A   Partly Cloudy
8:30 PM 51.8 °F - 37.4 °F 58% 30.09 in 6.2 mi NNW 10.4 mph - N/A   Partly Cloudy
9:00 PM 50.0 °F - 37.4 °F 62% 30.09 in 6.2 mi NNW 11.5 mph - N/A   Partly Cloudy
9:30 PM 48.2 °F - 39.2 °F 71% 30.12 in 6.2 mi NNW 6.9 mph - N/A   Partly Cloudy
10:00 PM 48.2 °F - 39.2 °F 71% 30.12 in 6.2 mi Variable 2.3 mph - N/A   Partly Cloudy
10:30 PM 44.6 °F 42.2 °F 39.2 °F 81% 30.12 in 6.2 mi West 4.6 mph - N/A   Partly Cloudy
11:00 PM 44.6 °F 42.2 °F 39.2 °F 81% 30.15 in 6.2 mi West 4.6 mph - N/A   Partly Cloudy